Weather History for Renton, WA

Change the Weather History Date:

Tuesday, November 5, 2013

  Actual Average Record
Temperature  
Mean Temperature 50 °F -  
Max Temperature 55 °F 53 °F 66 °F (1997)
Min Temperature 44 °F 39 °F 26 °F (2003)
Degree Days  
Heating Degree Days 16    
Moisture  
Dew Point 45 °F    
Average Humidity 87    
Maximum Humidity 100    
Minimum Humidity 66    
Precipitation  
Precipitation 0.06 in - - ()
Sea Level Pressure  
Sea Level Pressure 30.11 in    
Wind  
Wind Speed 2 mph (SSE)    
Max Wind Speed 13 mph    
Max Gust Speed 22 mph    
Visibility 8 miles    
Events Rain    
Averages and records for this station are not official NWS values.
T = Trace of Precipitation, MM = Missing Value Source: NWS Daily Summary

Daily Weather History Graph

Daily Weather History Graph

Search for Another Location

Airport:

Trip Planner

Search our weather history database for the weather conditions in past years. The results will help you decide how hot, cold, wet, or windy it might be!

Date:

Astronomy

Nov. 05, 2013 Rise Set
Actual Time 6:59 AM PST 4:45 PM PST
Civil Twilight 6:26 AM PST 5:17 PM PST
Nautical Twilight 5:50 AM PST 5:54 PM PST
Astronomical Twilight 5:14 AM PST 6:29 PM PST
Moon 9:26 AM PST (11/5) 6:45 PM PST (11/5)
Length of Visible Light 10h 50m
Length of Day
9h 45m
Waxing Crescent, 7% of the Moon is Illuminated
Nov 5
Waxing Crescent
Nov 9
First Quarter
Nov 17
Full
Nov 25
Last Quarter
Dec 2
New

Hourly Weather History & Observations

Time (PST) Temp. Windchill Dew Point Humidity Pressure Visibility Wind Dir Wind Speed Gust Speed Precip Events Conditions
12:53 AM 46.0 °F - 39.9 °F 79% 30.06 in 10.0 mi Calm Calm - N/A   Overcast
1:51 AM 44.6 °F - 42.8 °F 93% 30.04 in 5.0 mi Calm Calm - 0.00 in Rain Light Rain
1:53 AM 45.0 °F - 42.1 °F 90% 30.06 in 5.0 mi Calm Calm - 0.00 in Rain Light Rain
2:53 AM 44.1 °F 42.5 °F 43.0 °F 96% 30.06 in 4.0 mi Variable 3.5 mph - 0.01 in Rain Light Rain
3:09 AM 44.6 °F - 42.8 °F 93% 30.04 in 5.0 mi Calm Calm - 0.01 in Rain Light Rain
3:19 AM 44.6 °F 43.1 °F 42.8 °F 93% 30.04 in 8.0 mi Variable 3.5 mph - 0.01 in Rain Light Rain
3:40 AM 44.6 °F 43.1 °F 42.8 °F 93% 30.04 in 9.0 mi Variable 3.5 mph - 0.01 in Rain Light Rain
3:53 AM 45.0 °F - 43.0 °F 93% 30.06 in 10.0 mi Calm Calm - 0.01 in   Overcast
4:53 AM 45.0 °F - 44.1 °F 97% 30.05 in 10.0 mi Calm Calm - 0.01 in   Overcast
5:53 AM 46.0 °F 44.8 °F 43.0 °F 89% 30.04 in 10.0 mi SE 3.5 mph - N/A   Overcast
6:53 AM 46.0 °F - 44.1 °F 93% 30.05 in 10.0 mi Calm Calm - N/A   Overcast
7:49 AM 46.4 °F 45.2 °F 44.6 °F 93% 30.04 in 2.5 mi SE 3.5 mph - 0.00 in Rain Light Rain
7:53 AM 46.0 °F - 45.0 °F 96% 30.06 in 2.5 mi Calm Calm - 0.00 in Rain Light Rain
8:10 AM 46.4 °F 45.2 °F 44.6 °F 93% 30.05 in 8.0 mi SSE 3.5 mph - 0.00 in   Overcast
8:13 AM 46.4 °F 45.2 °F 44.6 °F 93% 30.05 in 6.0 mi SSE 3.5 mph - 0.00 in Rain Light Rain
8:43 AM 46.4 °F 45.2 °F 46.4 °F 100% 30.05 in 2.5 mi SE 3.5 mph - 0.00 in Rain Light Rain
8:53 AM 46.9 °F - 46.0 °F 97% 30.07 in 1.5 mi SE 3.5 mph - 0.01 in Rain Light Rain
9:24 AM 48.2 °F - 48.2 °F 100% 30.05 in 1.5 mi SSE 5.8 mph - 0.02 in Rain Light Rain
9:30 AM 48.2 °F - 48.2 °F 100% 30.05 in 2.0 mi SSE 5.8 mph - 0.02 in Rain Light Rain
9:53 AM 50.0 °F - 48.9 °F 96% 30.07 in 5.0 mi SSE 6.9 mph - 0.02 in   Overcast
10:31 AM 51.8 °F - 50.0 °F 94% 30.06 in 10.0 mi SSE 9.2 mph - N/A   Overcast
10:53 AM 53.1 °F - 50.0 °F 89% 30.08 in 10.0 mi South 6.9 mph - N/A   Overcast
11:53 AM 54.0 °F - 48.0 °F 80% 30.09 in 10.0 mi South 11.5 mph 20.7 mph N/A   Overcast
12:53 PM 54.0 °F - 46.0 °F 75% 30.08 in 10.0 mi SSE 12.7 mph 21.9 mph N/A   Mostly Cloudy
1:53 PM 55.0 °F - 45.0 °F 69% 30.10 in 10.0 mi South 6.9 mph - N/A   Overcast
2:53 PM 54.0 °F - 45.0 °F 72% 30.12 in 10.0 mi South 6.9 mph - N/A   Mostly Cloudy
3:53 PM 54.0 °F - 43.0 °F 66% 30.14 in 10.0 mi WSW 6.9 mph - N/A   Overcast
4:53 PM 53.1 °F - 42.1 °F 66% 30.16 in 10.0 mi SSW 4.6 mph - N/A   Overcast
5:53 PM 52.0 °F - 44.1 °F 74% 30.18 in 10.0 mi Calm Calm - N/A   Overcast
6:53 PM 52.0 °F - 42.1 °F 69% 30.20 in 10.0 mi South 3.5 mph - N/A   Overcast
7:53 PM 50.0 °F - 44.1 °F 80% 30.22 in 10.0 mi Calm Calm - 0.00 in   Overcast
8:53 PM 48.9 °F - 44.1 °F 83% 30.23 in 10.0 mi Calm Calm - N/A   Mostly Cloudy
9:53 PM 48.0 °F - 45.0 °F 89% 30.25 in 10.0 mi Calm Calm - N/A   Mostly Cloudy
10:33 PM 48.2 °F - 44.6 °F 87% 30.24 in 10.0 mi Calm Calm - N/A   Overcast
10:53 PM 48.0 °F - 44.1 °F 86% 30.26 in 9.0 mi Calm Calm - N/A   Overcast
11:39 PM 48.2 °F - 44.6 °F 87% 30.26 in 10.0 mi Calm Calm - N/A   Overcast
11:53 PM 48.0 °F - 45.0 °F 89% 30.27 in 10.0 mi Calm Calm - N/A   Overcast